Temp
14 13 13 13 13 12 12 12 12 11 10 11 11 11 11 11 11 11 11 10 10 10 10 10 10 10 10 10 10 10 10 10 10 9 9 9 10 10 9 10 9 9 9
14 14 13 13 13 13 13 12 12 11 11 11 11 11 11 11 10 10 10 10 10 10 10 10 10 10 10 10 10 10 10 10 10 10 9 9 9 10 10 10 9 8 6
15 14 13 13 13 13 13 13 12 12 11 11 11 11 11 10 10 10 10 10 10 10 10 10 10 10 10 10 10 10 10 10 10 10 9 9 9 9 10 9 9 9 8
13 14 14 13 13 12 12 13 12 12 11 10 10 10 10 10 10 10 10 10 10 10 10 10 10 10 10 10 10 10 10 10 10 9 9 9 9 9 9 9 9 9 9
14 13 13 13 13 12 11 12 11 11 11 10 9 9 9 9 9 10 9 9 9 9 9 9 9 9 9 9 9 10 10 9 9 9 8 8 8 9 8 8 8 8 8
13 13 12 12 12 12 11 11 10 10 8 10 10 9 8 8 8 9 9 9 9 9 9 9 9 9 9 9 9 9 9 9 9 9 8 8 8 8 8 8 8 8 8
14 13 13 13 12 12 11 10 10 9 9 10 9 9 9 8 8 8 7 8 8 8 8 8 8 8 9 8 8 8 8 8 8 8 8 8 8 8 8 8 8 8 8
13 13 13 12 11 11 10 10 10 10 9 9 9 9 9 8 8 7 6 7 7 7 8 8 8 8 8 8 8 8 8 8 7 7 7 7 7 7 7 7 7 7 7
12 12 11 11 11 11 10 10 10 9 9 9 9 9 8 8 8 7 6 6 6 7 7 7 8 7 7 7 7 7 7 7 7 6 6 6 6 7 7 7 7 7 7
11 11 11 11 11 10 9 9 9 9 9 9 8 8 8 7 7 7 6 6 6 5 5 6 7 6 6 6 6 6 6 6 6 6 6 6 6 6 6 6 6 6 6
11 11 11 10 9 8 8 8 8 8 9 10 7 7 7 6 6 6 6 5 5 5 4 5 5 5 4 4 4 5 5 5 5 5 5 5 6 6 6 6 5 5 5
10 10 9 8 7 7 7 7 8 8 8 8 7 6 6 7 6 5 5 5 5 4 3 3 4 4 2 2 2 3 4 4 4 4 4 4 4 4 4 5 5 5 5
10 8 7 7 7 7 6 6 7 7 7 7 7 6 6 6 5 4 4 3 3 3 3 3 3 2 0 1 1 2 3 3 3 3 3 3 3 3 4 4 4 4 4
8 8 7 7 6 6 7 6 6 6 6 5 5 5 5 4 4 3 3 3 2 2 2 1 1 1 1 1 1 2 2 3 3 3 3 3 3 3 3 3 3 3 3
7 7 6 6 6 5 5 5 5 5 5 5 5 5 4 4 4 3 3 3 3 2 2 2 2 2 2 2 2 2 3 3 3 3 2 3 2 2 2 2 2 2 2
7 7 6 6 6 5 5 5 5 5 4 4 3 3 3 3 3 3 3 2 2 2 2 2 2 1 2 2 2 2 2 2 2 2 2 2 2 2 2 1 1 2 2
6 6 5 5 4 4 4 4 4 4 4 4 3 3 3 3 3 3 2 2 2 2 2 2 2 1 2 2 1 1 1 1 1 2 1 2 1 1 1 1 1 1 1
5 5 5 4 4 4 4 3 3 3 3 3 3 3 3 2 2 2 2 2 2 2 2 2 2 2 2 2 2 2 2 1 1 2 2 2 1 1 0 -0 -0 -0 0
5 5 4 4 3 3 3 3 3 3 3 3 4 4 3 3 3 3 3 2 2 2 2 2 2 2 2 2 2 2 1 1 1 1 1 1 1 1 1 1 1 1 1
5 4 4 3 3 3 3 2 1 0 -0 2 3 2 2 2 1 1 2 2 1 1 1 1 1 1 1 1 1 1 0 0 -0 -0 -0 -0 -0 -0 -0 -0 -0 -0 -0
4 4 4 4 4 3 3 2 2 2 1 1 1 2 2 1 1 1 1 1 1 1 0 0 0 -0 -0 -1 -0 -0 -1 -3 -5 -5 -5 -5 -5 -5 -6 -6 -6 -6 -5
4 4 4 4 4 3 3 3 2 2 2 1 -1 0 1 -0 -2 -2 -2 -1 -3 -2 -2 -1 -1 -2 -2 -2 -2 -3 -5 -5 -5 -4 -3 -3 -3 -3 -3 -3 -3 -3 -4
4 4 4 3 3 3 2 2 1 1 -1 -0 -1 -2 -3 -3 -4 -4 -3 -3 -3 -3 -3 -3 -2 -2 -4 -3 -2 -1 -1 -1 -1 -2 -2 -2 -2 -3 -3 -3 -3 -3 -3
4 4 3 3 2 2 1 1 -0 0 -1 -3 -4 -4 -4 -4 -4 -4 -4 -4 -4 -4 -4 -5 -5 -5 -5 -5 -5 -3 -3 -3 -4 -3 -3 -5 -6 -5 -5 -4 -4 -5 -5
3 3 2 2 2 1 1 -1 -2 -2 -3 -4 -4 -4 -4 -4 -4 -4 -4 -4 -4 -4 -5 -5 -5 -5 -4 -4 -5 -6 -6 -6 -6 -4 -4 -4 -5 -5 -5 -5 -5 -5 -6
2 2 2 1 0 0 -0 -2 -3 -4 -4 -4 -4 -4 -4 -4 -4 -4 -5 -5 -4 -3 -3 -3 -4 -5 -5 -5 -5 -5 -4 -4 -4 -4 -5 -5 -5 -5 -5 -5 -5 -5 -6
Height
3191 3191 3191 3191 3191 3191 3191 3191 3191 3191 3190 3190 3190 3189 3189 3188 3188 3187 3186 3186 3185 3184 3183 3182 3181 3180 3180 3179 3178 3177 3175 3175 3174 3174 3172 3168 3170 3168 3167 3168 3168 3168 3168
3190 3190 3190 3190 3190 3189 3189 3188 3188 3188 3187 3186 3187 3187 3187 3186 3185 3184 3184 3184 3183 3182 3181 3180 3179 3178 3177 3176 3174 3174 3172 3171 3170 3169 3167 3166 3164 3163 3164 3163 3163 3164 3161
3189 3188 3188 3188 3187 3186 3185 3184 3184 3184 3183 3183 3183 3182 3182 3182 3182 3182 3181 3180 3180 3180 3179 3178 3177 3176 3175 3173 3172 3170 3168 3167 3165 3163 3162 3160 3160 3160 3160 3161 3159 3159 3159
3186 3184 3184 3184 3183 3181 3180 3179 3178 3177 3178 3178 3177 3177 3177 3177 3176 3176 3177 3177 3176 3176 3175 3174 3173 3172 3171 3170 3169 3167 3165 3163 3160 3159 3157 3156 3155 3153 3154 3154 3154 3154 3154
3183 3182 3180 3179 3178 3176 3175 3174 3172 3170 3168 3168 3170 3171 3171 3170 3170 3171 3171 3171 3171 3171 3170 3169 3168 3168 3166 3165 3164 3163 3161 3159 3157 3155 3153 3152 3150 3150 3148 3148 3148 3148 3148
3178 3177 3175 3173 3173 3172 3170 3166 3164 3159 3149 3159 3163 3165 3165 3163 3161 3161 3163 3163 3164 3164 3164 3164 3162 3162 3161 3161 3159 3157 3155 3153 3151 3150 3148 3146 3145 3145 3143 3143 3142 3142 3143
3173 3171 3169 3167 3165 3162 3163 3161 3158 3154 3153 3151 3151 3152 3150 3151 3151 3152 3154 3153 3154 3156 3156 3157 3157 3155 3155 3154 3154 3151 3149 3146 3144 3143 3142 3141 3140 3139 3139 3138 3137 3138 3138
3166 3163 3160 3158 3157 3156 3154 3151 3149 3145 3145 3145 3144 3142 3141 3141 3141 3141 3143 3144 3145 3147 3148 3149 3148 3148 3147 3146 3145 3144 3142 3140 3139 3136 3136 3135 3134 3134 3132 3132 3132 3132 3132
3159 3157 3154 3152 3149 3148 3146 3144 3141 3138 3136 3134 3132 3132 3131 3130 3129 3131 3134 3135 3136 3139 3141 3142 3141 3139 3139 3140 3139 3138 3136 3135 3133 3133 3131 3130 3129 3129 3128 3128 3127 3127 3126
3154 3152 3149 3146 3143 3140 3138 3136 3134 3130 3127 3123 3120 3120 3120 3119 3120 3122 3124 3126 3128 3130 3131 3130 3133 3133 3131 3132 3132 3132 3131 3130 3128 3127 3127 3126 3124 3123 3123 3122 3122 3122 3123
3151 3148 3144 3141 3137 3135 3133 3130 3127 3123 3118 3113 3108 3109 3110 3109 3107 3109 3112 3115 3116 3120 3117 3120 3122 3121 3123 3125 3126 3125 3124 3124 3123 3123 3122 3121 3120 3118 3118 3118 3117 3117 3117
3147 3144 3141 3138 3135 3132 3129 3126 3122 3116 3111 3107 3105 3104 3103 3101 3093 3097 3103 3106 3107 3107 3109 3111 3112 3110 3110 3118 3120 3120 3119 3119 3119 3118 3117 3116 3115 3114 3113 3112 3112 3112 3111
3144 3141 3138 3136 3133 3131 3128 3125 3119 3114 3110 3107 3104 3102 3100 3099 3100 3101 3101 3103 3102 3102 3102 3103 3106 3106 3108 3111 3115 3116 3115 3114 3114 3115 3114 3112 3111 3110 3109 3108 3107 3106 3105
3143 3140 3137 3135 3132 3129 3127 3124 3120 3116 3111 3107 3105 3105 3105 3102 3103 3102 3104 3104 3104 3103 3103 3103 3103 3105 3106 3106 3108 3109 3109 3109 3110 3110 3109 3108 3106 3105 3103 3102 3101 3100 3098
3142 3139 3137 3134 3132 3129 3126 3124 3121 3118 3116 3113 3110 3109 3107 3106 3105 3104 3103 3102 3102 3102 3102 3102 3102 3102 3103 3104 3104 3104 3104 3104 3105 3104 3103 3102 3100 3099 3098 3096 3095 3093 3092
3141 3139 3137 3135 3132 3130 3127 3124 3122 3120 3118 3116 3113 3112 3110 3109 3108 3107 3106 3104 3102 3102 3102 3101 3100 3099 3100 3100 3099 3098 3098 3098 3098 3097 3095 3094 3093 3092 3090 3089 3088 3086 3084
3141 3139 3136 3134 3132 3130 3127 3124 3123 3120 3118 3116 3114 3112 3111 3108 3107 3105 3103 3102 3100 3098 3099 3097 3097 3096 3096 3095 3094 3093 3091 3090 3089 3087 3085 3084 3083 3082 3080 3079 3079 3078 3076
3139 3138 3136 3134 3132 3130 3128 3125 3121 3118 3116 3114 3112 3110 3108 3106 3104 3101 3100 3098 3096 3095 3093 3092 3091 3090 3088 3087 3085 3084 3082 3081 3079 3078 3076 3074 3072 3070 3069 3067 3067 3065 3065
3137 3135 3133 3131 3129 3127 3125 3123 3120 3116 3113 3111 3108 3107 3105 3102 3099 3098 3096 3094 3091 3089 3087 3085 3084 3082 3081 3079 3078 3077 3076 3073 3071 3070 3067 3064 3062 3060 3058 3056 3054 3052 3051
3134 3131 3130 3128 3125 3123 3121 3119 3118 3115 3112 3108 3106 3105 3101 3099 3096 3093 3090 3089 3087 3084 3083 3080 3078 3076 3074 3073 3070 3068 3067 3064 3063 3060 3058 3055 3053 3050 3048 3046 3044 3042 3040
3129 3128 3126 3124 3122 3120 3119 3116 3114 3112 3109 3106 3101 3101 3099 3097 3094 3091 3089 3086 3083 3081 3077 3075 3073 3071 3069 3067 3064 3062 3060 3058 3056 3054 3051 3049 3046 3043 3040 3038 3036 3034 3031
3126 3124 3123 3121 3118 3116 3114 3112 3110 3108 3106 3103 3101 3095 3094 3092 3090 3087 3085 3082 3080 3077 3074 3071 3069 3067 3064 3061 3059 3057 3056 3054 3052 3047 3043 3040 3037 3034 3032 3029 3026 3024 3022
3124 3121 3119 3117 3115 3113 3111 3109 3107 3105 3103 3100 3098 3095 3093 3090 3087 3085 3082 3079 3076 3073 3071 3068 3065 3063 3062 3059 3056 3053 3049 3045 3042 3039 3035 3031 3027 3024 3022 3019 3016 3013 3010
3120 3118 3116 3114 3112 3110 3108 3105 3103 3100 3098 3097 3096 3093 3092 3090 3089 3086 3083 3080 3076 3073 3070 3066 3062 3059 3054 3049 3045 3041 3039 3035 3031 3028 3025 3022 3018 3015 3012 3009 3006 3003 3000
3117 3115 3113 3111 3109 3107 3105 3104 3101 3099 3097 3096 3094 3093 3091 3088 3086 3083 3079 3075 3071 3068 3064 3059 3057 3054 3050 3046 3042 3037 3030 3026 3022 3018 3014 3011 3008 3004 3000 2997 2995 2993 2991
3113 3111 3110 3108 3106 3104 3102 3101 3099 3097 3096 3093 3092 3091 3087 3083 3081 3077 3073 3066 3061 3058 3054 3050 3046 3042 3039 3035 3030 3025 3019 3015 3012 3007 3003 2999 2995 2991 2988 2984 2982 2980 2978
Wind_Speed
5 6 7 10 12 14 15 15 16 14 16 14 14 12 10 9 8 7 7 7 7 8 8 8 9 10 10 10 10 11 12 13 13 13 20 26 19 19 19 17 15 15 16
8 7 9 11 13 16 17 19 19 19 19 19 18 17 16 15 13 11 12 11 11 11 12 12 13 12 12 11 12 11 13 14 16 17 20 21 22 21 19 17 16 11 20
9 11 12 13 15 17 20 20 24 24 23 23 23 22 22 20 19 18 16 15 14 13 13 13 15 16 15 16 15 15 16 15 16 17 19 20 20 19 19 15 16 16 17
14 15 17 17 20 21 23 26 25 27 25 25 26 26 26 26 25 23 22 20 18 17 16 16 17 17 18 17 17 17 18 19 20 19 19 19 19 19 17 16 17 15 16
21 22 25 24 26 26 28 29 29 29 27 27 26 28 29 28 28 29 27 25 24 23 21 19 20 19 21 20 20 19 19 19 20 20 19 19 19 18 17 18 17 16 17
25 28 29 32 30 29 29 31 29 27 25 28 39 42 41 32 30 30 31 32 29 28 26 24 22 21 22 22 22 22 22 21 21 21 20 21 20 17 19 19 19 19 16
22 24 26 29 31 33 31 31 35 35 31 39 41 35 30 38 39 38 34 33 33 32 30 27 24 25 21 21 25 25 25 22 20 18 19 19 20 19 18 18 20 19 16
21 21 23 24 24 27 30 33 36 40 39 38 38 33 31 34 38 39 36 34 31 34 34 31 26 26 24 20 24 24 23 19 18 18 18 18 18 19 18 18 19 19 18
20 21 22 23 22 24 25 27 30 34 36 36 35 34 32 35 36 35 32 28 29 36 36 37 33 25 26 22 21 21 20 17 17 14 17 16 17 17 17 19 18 18 17
18 19 20 22 23 22 23 24 25 28 29 31 32 32 33 36 38 34 34 32 32 33 37 36 38 31 21 19 19 19 17 16 14 15 14 16 16 17 17 17 17 18 18
18 20 22 22 20 20 20 20 19 23 27 31 30 30 29 34 35 35 36 35 36 38 40 42 44 32 16 14 13 14 14 14 13 13 14 15 15 15 16 15 16 17 17
19 20 16 16 15 15 18 21 24 24 22 14 11 13 19 20 20 25 29 31 37 37 40 41 38 33 20 13 11 11 12 14 15 15 15 15 16 16 17 19 17 17 17
19 17 15 14 13 16 17 24 24 17 14 14 9 16 19 24 19 18 18 22 28 30 31 37 35 35 20 9 12 13 14 15 16 17 17 17 18 20 19 20 21 20 20
15 14 14 13 14 13 15 20 17 15 13 13 11 6 6 5 7 7 12 17 20 23 27 26 18 8 5 9 14 15 16 16 19 20 20 20 20 20 21 20 20 20 21
14 13 11 11 12 11 14 14 14 14 15 15 14 14 11 10 9 6 8 9 6 4 1 4 5 6 8 12 18 20 20 22 23 24 24 24 24 24 24 24 24 24 22
10 10 10 9 9 12 13 12 14 14 14 15 14 14 13 10 10 9 10 8 7 9 11 13 17 17 18 21 21 23 24 27 28 30 27 31 29 31 31 31 31 28 28
9 9 9 10 11 10 11 13 10 12 14 14 13 13 13 11 12 17 15 16 17 17 18 17 21 23 23 25 28 29 30 29 35 29 30 34 35 37 34 31 30 33 34
10 10 10 12 13 13 14 16 16 16 18 19 19 19 18 19 21 21 21 20 20 20 21 21 23 23 24 26 27 28 30 28 34 33 34 34 34 33 35 35 37 39 41
12 14 15 15 12 15 19 17 16 18 20 20 20 18 17 19 20 18 18 19 19 20 22 22 23 22 23 24 25 24 25 27 29 29 30 32 33 32 32 33 35 37 36
15 16 17 16 19 18 21 16 12 13 13 18 19 17 20 20 20 21 24 21 19 20 21 22 24 23 24 24 25 26 26 26 26 28 28 30 30 31 31 31 32 33 35
15 14 15 16 16 14 15 14 15 14 13 14 21 18 16 16 17 19 19 20 20 20 22 22 20 21 20 20 22 21 21 20 20 21 21 21 23 24 24 24 23 24 26
13 14 15 16 16 15 15 15 15 15 16 15 10 21 18 13 11 13 14 14 14 17 17 19 19 19 20 21 22 21 20 20 21 25 28 30 31 31 31 31 31 30 28
13 15 15 14 14 14 14 14 12 12 10 13 11 10 10 13 12 14 17 15 18 17 17 17 17 16 16 19 21 24 24 25 27 26 28 30 31 32 31 31 32 34 33
14 14 13 14 13 12 11 13 13 14 12 10 9 10 11 13 13 15 17 18 20 21 22 25 24 26 31 34 36 35 33 30 33 32 30 33 35 37 37 35 34 31 35
13 13 14 13 11 11 12 10 10 10 10 10 10 12 12 13 14 15 18 20 19 19 22 24 22 21 25 27 33 37 36 36 38 37 35 35 37 39 40 39 37 34 33
12 13 12 11 10 12 12 11 10 11 11 13 12 13 16 17 16 19 21 24 25 24 29 27 25 25 25 26 30 33 36 37 37 37 38 38 39 41 42 42 40 38 36
Wind_Direction
324 303 286 275 270 267 266 259 259 258 256 272 270 272 275 283 295 303 309 308 300 297 301 305 301 300 296 292 292 296 292 289 281 263 268 280 290 282 281 285 277 276 283
312 306 295 282 279 280 276 271 267 265 266 270 271 270 272 275 276 280 288 293 297 299 302 305 307 307 301 299 296 294 293 292 287 283 276 282 286 289 283 279 276 266 258
308 298 281 280 275 271 271 267 270 266 263 266 268 264 261 263 269 274 275 279 283 286 290 294 298 302 303 301 300 301 298 294 288 285 283 286 286 286 287 281 272 266 269
269 280 280 277 275 273 271 272 270 268 264 263 267 269 265 263 262 263 270 272 272 276 280 286 291 296 299 296 295 295 297 296 293 288 286 284 285 287 285 281 275 264 257
271 271 275 275 277 271 275 278 275 274 265 259 264 273 273 266 266 269 267 268 270 270 271 275 283 292 291 291 291 293 293 294 289 287 287 286 282 286 284 279 285 275 268
271 273 273 274 276 279 277 278 276 276 253 272 289 291 274 267 264 266 265 263 262 264 267 271 275 281 287 289 288 288 290 290 288 286 281 277 275 277 274 274 275 268 274
286 286 285 277 275 273 275 274 273 274 277 288 288 288 277 256 262 269 265 256 256 258 260 263 270 276 282 284 286 289 289 286 281 277 275 275 278 277 279 281 280 283 279
294 286 281 282 278 274 270 271 275 278 277 275 279 277 273 263 261 272 258 252 256 259 260 259 259 268 271 274 280 284 283 279 274 278 278 278 277 278 278 278 279 280 279
300 300 301 300 294 285 279 271 272 273 278 280 277 274 268 259 263 260 253 257 251 259 263 264 260 255 263 270 274 274 275 273 277 280 280 279 280 282 280 279 279 279 283
316 311 307 304 304 303 298 298 296 292 291 289 279 274 267 262 259 257 256 257 254 257 259 255 258 258 258 259 261 264 271 276 278 286 276 278 280 282 283 279 278 278 275
317 316 315 312 313 314 317 318 315 315 312 302 280 272 269 263 257 255 251 244 256 268 252 252 248 241 247 255 258 264 269 274 278 281 283 286 288 288 283 273 274 271 267
330 329 330 332 332 331 332 338 335 332 323 334 318 288 281 241 256 276 263 256 254 245 247 252 245 232 211 259 276 271 270 273 275 278 283 286 285 285 285 288 288 280 276
334 338 335 331 333 335 333 333 340 340 320 300 333 315 266 245 257 277 279 273 258 235 237 245 264 257 211 232 280 286 288 286 286 286 288 289 288 286 285 285 284 282 282
339 331 321 329 346 348 338 348 5 21 28 29 32 7 326 347 282 294 271 275 275 280 281 258 250 214 257 291 279 276 278 279 284 285 285 288 286 285 287 285 284 287 286
347 355 350 355 354 352 351 355 7 19 29 41 50 54 63 39 51 44 56 62 64 52 339 223 251 255 275 273 279 283 283 281 279 281 276 282 285 285 284 283 286 288 289
357 13 10 9 3 356 358 6 5 6 8 10 14 12 10 10 354 336 313 292 286 273 267 275 276 273 284 281 278 281 279 279 279 278 276 281 282 283 284 279 284 283 285
338 347 352 347 340 345 341 338 351 341 340 342 340 333 317 309 321 310 299 299 295 289 308 276 286 296 278 278 281 285 282 279 279 286 281 285 280 285 279 273 273 272 276
324 334 334 330 328 326 329 323 326 327 322 322 318 317 314 311 309 304 308 307 300 294 294 293 289 290 286 285 284 285 286 277 282 284 286 286 284 283 280 276 275 272 270
311 316 317 316 312 307 321 310 312 318 320 322 317 316 312 313 310 306 305 308 309 305 305 304 302 300 298 297 294 292 290 287 288 287 288 287 287 287 283 283 281 282 280
305 304 308 311 314 310 314 306 316 325 326 322 312 322 316 322 322 319 319 315 311 304 301 301 300 300 299 297 295 295 295 293 293 293 290 288 287 285 284 280 280 279 281
297 307 306 307 312 314 310 308 310 313 314 315 311 321 314 307 304 305 306 305 305 301 301 302 299 297 297 297 297 298 299 299 296 298 298 297 293 294 295 295 293 294 294
302 306 307 307 309 312 313 316 318 318 317 317 318 319 324 326 320 314 312 312 305 302 303 301 304 304 304 304 304 303 299 295 288 282 281 282 282 285 288 286 284 283 279
308 308 312 314 318 321 324 322 321 317 315 317 317 315 319 319 327 328 327 325 316 310 305 304 302 298 296 292 294 295 294 296 294 295 296 294 293 295 292 292 288 287 287
305 306 311 314 319 320 324 325 331 334 337 337 341 344 341 338 335 330 332 321 320 320 319 314 316 317 319 319 318 315 312 311 305 305 297 292 292 294 296 295 294 288 288
304 310 313 318 321 324 328 331 329 330 337 338 332 331 330 319 317 314 307 306 299 294 289 285 287 283 289 289 290 291 291 290 292 300 299 296 292 294 294 294 294 292 285
306 311 311 316 322 324 324 324 327 328 327 322 336 326 303 315 320 311 309 293 300 311 313 311 305 303 298 294 292 292 295 299 302 302 300 297 294 291 290 291 292 290 285